Terug naar catalogus

NOAA 16 DEB

ActiefPO
NORAD 41053·DEBRIS·🇺🇸 United States

Gelanceerd Sep 21, 2000 vanaf Vandenberg Space Force Base

Loading…

Volgende Passages (komende 24 uur)

TLE

VersSource: Space-Track

Epoch: Sep 14, 2026, 14:13 UTC

1 41053U 00055L   26257.59299708  .00004618  00000-0  10643-2 0  9999
2 41053  98.9902 127.7740 0020731 196.3493 163.7036 14.55723554563379

Volg NOAA 16 DEB in realtime met AllMySat

Download on the App Store